Stations météo

réclame
Mon MeteoGroup
Örskär, Suède (2488): Température de l'air & dewpoint: 14.01.2020 08:00:00 - 20.01.2020 08:00:00 (CET)Örskär, Suède (2488): Vitesse du vent & gusts: 14.01.2020 08:00:00 - 20.01.2020 08:00:00 (CET)Örskär, Suède (2488): Direction du vent: 14.01.2020 08:00:00 - 20.01.2020 08:00:00 (CET)Örskär, Suède (2488): reduced air pressure: 14.01.2020 08:00:00 - 20.01.2020 08:00:00 (CET)Örskär, Suède (2488): visibility: 14.01.2020 08:00:00 - 20.01.2020 08:00:00 (CET)Örskär, Suède (2488): Quantités de précipitations: 14.01.2020 08:00:00 - 20.01.2020 08:00:00 (CET)
Date & Time tt [°C] td [°C] ff [km/h] ff [knt] fx [km/h] fx [knt] dd ppp [hPa] vv [km] rr [mm]
20.01.2020 08:00:00 2,6 -2,7 43 23 50 27 SW 1024,9 50 0,0
20.01.2020 07:00:00 2,2 -3,5 40 21 46 25 SW 1025,5 50 0,0
20.01.2020 06:00:00 2,1 -3,8 41 22 46 25 WSW 1026,1 50 0,0
20.01.2020 05:00:00 2,0 -3,7 36 19 40 22 SW 1026,9 50 0,0
20.01.2020 04:00:00 1,9 -3,2 31 17 38 21 WSW 1028,1 50 0,0
20.01.2020 03:00:00 1,6 -3,3 28 15 38 20 SW 1028,9 50 0,0
20.01.2020 02:00:00 1,8 -2,9 35 19 41 22 W 1029,4 50 0,0
20.01.2020 01:00:00 1,9 -2,4 29 16 39 21 W 1029,2 45 0,0
20.01.2020 00:00:00 1,9 -2,4 32 18 39 21 WSW 1029,8 44 0,0
19.01.2020 23:00:00 2,0 -2,1 36 19 41 22 WSW 1029,7 42 0,0
19.01.2020 22:00:00 2,3 -1,6 31 17 36 20 WSW 1029,6 43 0,0
19.01.2020 21:00:00 2,5 -1,3 31 17 37 20 WSW 1029,2 42 0,0
19.01.2020 20:00:00 2,8 -1,0 32 17 39 21 W 1028,1 50 0,0
19.01.2020 19:00:00 3,2 -1,0 31 17 45 24 W 1028,1 50 0,0
19.01.2020 18:00:00 3,7 -1,1 39 21 53 28 W 1027,0 50 0,0
19.01.2020 17:00:00 3,6 -0,6 37 20 44 24 W 1026,3 50 0,0
19.01.2020 16:00:00 3,8 -0,5 35 19 46 25 W 1025,0 50 0,0
19.01.2020 15:00:00 4,4 -0,4 40 22 53 29 W 1024,4 50 0,0
19.01.2020 14:00:00 4,6 -0,2 44 24 49 26 W 1023,2 50 0,0
19.01.2020 13:00:00 4,1 0,4 37 20 46 25 W 1022,1 50 0,0
19.01.2020 12:00:00 4,1 0,3 42 23 49 27 W 1021,0 50 0,0
19.01.2020 11:00:00 4,1 0,1 46 25 52 28 W 1020,0 50 0,0
19.01.2020 10:00:00 3,5 0,7 37 20 46 25 W 1018,8 50 0,0
19.01.2020 09:00:00 3,0 1,0 29 15 42 23 W 1017,4 50 0,0
19.01.2020 08:00:00 2,4 0,8 31 17 39 21 WSW 1016,3 50 0,0
19.01.2020 07:00:00 2,6 1,4 34 18 37 20 WSW 1015,0 50 0,0
19.01.2020 06:00:00 2,6 1,7 33 18 36 19 WSW 1013,9 50 0,0
19.01.2020 05:00:00 2,5 1,6 23 12 30 16 WSW 1012,8 35 0,0
19.01.2020 04:00:00 3,0 1,8 23 13 37 20 W 1011,7 50 0,0
19.01.2020 03:00:00 3,6 2,3 33 18 41 22 WNW 1010,4 50 0,0
19.01.2020 02:00:00 3,6 2,7 31 17 40 21 W 1008,7 50 0,0
19.01.2020 01:00:00 3,2 2,3 37 20 51 28 WNW 1007,2 15 0,8
19.01.2020 00:00:00 3,9 2,9 36 20 43 23 WSW 1005,9 11 0,7
18.01.2020 23:00:00 4,2 2,5 38 21 42 23 SW 1005,3 45 0,0
18.01.2020 22:00:00 4,2 2,5 37 20 47 26 SW 1004,9 50 0,0
18.01.2020 21:00:00 4,2 2,2 36 20 48 26 SW 1004,6 50 0,0
18.01.2020 20:00:00 4,8 2,5 39 21 51 27 SW 1004,4 50 0,0
18.01.2020 19:00:00 5,0 3,0 39 21 45 25 SSW 1004,2 50 0,0
18.01.2020 18:00:00 4,8 3,3 39 21 51 27 SSW 1004,0 50 0,0
18.01.2020 17:00:00 5,0 3,8 41 22 48 26 SW 1004,0 26 0,0
18.01.2020 16:00:00 5,0 3,9 31 17 37 20 SSW 1004,1 18 0,0
18.01.2020 15:00:00 4,7 3,7 28 15 34 18 SW 1004,0 13 0,0
18.01.2020 14:00:00 4,4 3,5 28 15 36 20 SW 1004,2 10 0,0
18.01.2020 13:00:00 4,1 3,4 29 15 34 18 SSW 1004,2 7 0,0
18.01.2020 12:00:00 3,8 3,1 23 12 32 17 SSW 1004,0 8 0,0
18.01.2020 11:00:00 3,4 2,7 24 13 31 17 S 1004,2 8 0,0
18.01.2020 10:00:00 3,2 2,5 22 12 32 17 S 1004,5 4,1 0,1
18.01.2020 09:00:00 3,2 2,5 22 12 45 24 SSW 1004,7 6 0,0
18.01.2020 08:00:00 3,3 2,4 40 22 46 25 SW 1004,8 7 0,0
18.01.2020 07:00:00 3,5 2,6 30 16 38 20 SSW 1004,9 8 0,0
18.01.2020 06:00:00 3,4 2,5 24 13 39 21 SSW 1005,4 9 0,0
18.01.2020 05:00:00 3,4 2,5 27 15 38 20 SSW 1005,9 9 0,0
18.01.2020 04:00:00 3,4 2,5 24 13 31 17 S 1006,3 9 0,0
18.01.2020 03:00:00 3,5 2,8 24 13 40 22 S 1007,0 8 0,0
18.01.2020 02:00:00 3,3 2,6 30 16 41 22 S 1007,5 7 0,0
18.01.2020 01:00:00 3,6 2,9 29 16 37 20 S 1008,5 7 0,0
18.01.2020 00:00:00 3,6 2,7 25 14 39 21 S 1009,3 8 0,0
17.01.2020 23:00:00 3,3 2,4 29 16 38 21 S 1010,0 8 0,0
17.01.2020 22:00:00 3,4 2,4 27 15 43 23 S 1010,5 9 0,0
17.01.2020 21:00:00 3,6 2,6 30 16 39 21 S 1010,8 11 0,0
17.01.2020 20:00:00 3,4 2,2 28 15 41 22 S 1011,5 12 0,0
17.01.2020 19:00:00 3,4 2,1 24 13 36 19 S 1011,8 19 0,0
17.01.2020 18:00:00 3,9 2,3 29 16 42 23 S 1012,2 41 0,0
17.01.2020 17:00:00 4,1 2,3 34 18 43 23 S 1012,4 43 0,0
17.01.2020 16:00:00 4,3 2,3 35 19 42 23 SSW 1012,4 44 0,0
17.01.2020 15:00:00 4,6 2,1 33 18 46 25 SSW 1013,0 43 0,0
17.01.2020 14:00:00 4,5 2,2 32 17 45 24 SSW 1013,3 40 0,0
17.01.2020 13:00:00 4,7 2,1 36 19 46 25 S 1013,1 47 0,0
17.01.2020 12:00:00 4,7 1,9 38 21 53 29 S 1013,6 45 0,0
17.01.2020 11:00:00 4,4 1,8 35 19 47 26 S 1014,5 37 0,0
17.01.2020 10:00:00 4,3 2,0 36 19 43 23 S 1015,0 29 0,0
17.01.2020 09:00:00 4,4 2,3 28 15 42 23 SSW 1015,1 25 0,0
17.01.2020 08:00:00 4,6 2,3 37 20 48 26 SSW 1015,7 24 0,0
17.01.2020 07:00:00 4,3 2,0 29 16 37 20 SSW 1015,9 21 0,0
17.01.2020 06:00:00 4,4 2,3 32 17 36 20 SW 1016,3 18 0,0
17.01.2020 05:00:00 4,3 1,8 29 16 46 25 SW 1016,0 19 0,0
17.01.2020 04:00:00 4,3 1,7 39 21 46 25 SW 1016,2 18 0,0
17.01.2020 03:00:00 4,2 1,6 40 22 48 26 SW 1016,5 17 0,0
17.01.2020 02:00:00 4,1 1,5 37 20 50 27 SW 1016,4 17 0,0
17.01.2020 01:00:00 3,9 1,3 34 18 46 25 SW 1016,3 17 0,0
17.01.2020 00:00:00 4,3 1,7 39 21 49 26 SW 1015,6 17 0,0
16.01.2020 23:00:00 4,4 1,6 44 24 58 31 WSW 1015,1 20 0,0
16.01.2020 22:00:00 4,4 1,8 43 23 49 26 WSW 1014,4 20 0,0
16.01.2020 21:00:00 4,7 2,1 37 20 41 22 SW 1013,7 19 0,0
16.01.2020 20:00:00 5,1 2,3 36 20 57 31 SW 1013,3 20 0,0
16.01.2020 19:00:00 4,9 2,1 46 25 54 29 SW 1012,3 23 0,0
16.01.2020 18:00:00 5,0 2,0 32 17 40 22 SW 1011,4 27 0,0
16.01.2020 17:00:00 5,5 2,1 31 17 50 27 SW 1010,8 32 0,0
16.01.2020 16:00:00 5,4 2,0 39 21 55 30 WSW 1009,8 30 0,0
16.01.2020 15:00:00 5,7 2,2 46 25 54 29 WSW 1008,7 26 0,0
16.01.2020 14:00:00 6,2 2,1 45 24 50 27 WSW 1007,7 22 0,0
16.01.2020 13:00:00 6,4 2,1 40 22 54 29 SW 1006,8 22 0,0
16.01.2020 12:00:00 6,4 2,3 42 23 54 29 WSW 1005,6 19 0,0
16.01.2020 11:00:00 5,9 2,4 37 20 51 28 SW 1004,6 18 0,0
16.01.2020 10:00:00 5,2 2,3 40 22 45 25 SW 1003,8 17 0,0
16.01.2020 09:00:00 4,9 2,3 35 19 42 23 SW 1003,2 17 0,0
16.01.2020 08:00:00 4,9 1,9 36 20 47 25 SW 1002,5 21 0,0
16.01.2020 07:00:00 4,8 2,0 42 23 50 27 SW 1001,8 23 0,0
16.01.2020 06:00:00 4,6 2,0 40 22 49 27 SW 1001,1 33 0,0
16.01.2020 05:00:00 4,5 1,9 41 22 48 26 SW 1000,7 37 0,0
16.01.2020 04:00:00 4,4 2,0 42 23 49 27 SW 1000,8 34 0,0
16.01.2020 03:00:00 4,5 2,2 38 20 44 24 SW 1000,5 33 0,0
16.01.2020 02:00:00 4,5 2,2 32 17 45 24 SW 1000,2 30 0,0
16.01.2020 01:00:00 5,1 2,3 40 22 46 25 SW 999,5 29 0,0
16.01.2020 00:00:00 5,1 2,3 34 19 47 26 SW 999,1 27 0,0
15.01.2020 23:00:00 5,1 2,3 36 19 44 24 SW 998,6 31 0,0
15.01.2020 22:00:00 5,2 2,1 37 20 49 26 SW 998,5 33 0,0
15.01.2020 21:00:00 5,3 2,0 46 25 58 31 SW 998,0 35 0,0
15.01.2020 20:00:00 5,2 1,5 42 23 51 27 SW 997,7 34 0,0
15.01.2020 19:00:00 5,3 1,2 45 24 55 30 SW 996,8 35 0,0
15.01.2020 18:00:00 5,0 0,9 39 21 48 26 SW 996,6 36 0,0
15.01.2020 17:00:00 5,4 0,8 44 24 60 32 WSW 995,8 32 0,0
15.01.2020 16:00:00 5,7 0,8 47 26 64 35 WSW 994,7 33 0,0
15.01.2020 15:00:00 6,2 1,1 54 29 69 38 WSW 993,3 44 0,0
15.01.2020 14:00:00 6,5 1,4 56 31 77 41 WSW 992,2 47 0,0
15.01.2020 13:00:00 6,8 1,9 59 32 80 43 SW 990,7 42 0,0
15.01.2020 12:00:00 7,3 2,8 63 34 84 45 SW 989,6 43 0,0
15.01.2020 11:00:00 7,5 3,4 62 33 92 50 SW 988,6 31 0,0
15.01.2020 10:00:00 7,9 4,5 67 36 85 46 SW 987,4 41 0,0
15.01.2020 09:00:00 8,0 5,8 61 33 79 43 SW 986,2 50 0,0
15.01.2020 08:00:00 7,4 6,0 60 32 70 38 SSW 985,5 50 0,0
15.01.2020 07:00:00 6,2 5,3 46 25 63 34 SSW 985,4 23 0,1
15.01.2020 06:00:00 5,1 4,4 35 19 51 28 S 986,2 12 0,1
15.01.2020 05:00:00 4,0 3,1 22 12 39 21 SSE 988,2 3,2 0,4
15.01.2020 04:00:00 3,7 2,6 20 11 37 20 SSE 991,0 7 2,0
15.01.2020 03:00:00 4,0 2,4 22 12 44 24 S 993,5 13 0,2
15.01.2020 02:00:00 3,9 2,3 33 18 44 24 S 995,2 15 0,0
15.01.2020 01:00:00 4,1 2,5 35 19 52 28 SSW 995,7 16 0,0
15.01.2020 00:00:00 4,1 2,5 46 25 53 28 SSW 995,9 17 0,0
14.01.2020 23:00:00 4,0 2,4 45 24 60 32 SSW 995,9 19 0,0
14.01.2020 22:00:00 4,1 2,3 55 30 63 34 SW 995,2 22 0,0
14.01.2020 21:00:00 4,4 2,7 46 25 54 29 SW 994,8 31 0,0
14.01.2020 20:00:00 4,4 3,1 46 25 59 32 SSW 994,2 50 0,0
14.01.2020 19:00:00 4,5 3,2 37 20 55 30 SSW 993,9 47 0,0
14.01.2020 18:00:00 4,2 3,2 39 21 52 28 SSW 993,4 47 0,0
14.01.2020 17:00:00 4,2 3,2 40 22 53 29 S 993,4 33 0,0
14.01.2020 16:00:00 4,0 3,0 36 20 56 31 S 993,9 39 0,3
14.01.2020 15:00:00 3,9 2,7 39 21 63 34 S 994,3 14 0,6
14.01.2020 14:00:00 3,8 2,3 46 25 68 37 S 994,7 13 0,9
14.01.2020 13:00:00 4,3 2,2 40 21 61 33 S 995,0 12 0,1
14.01.2020 12:00:00 5,0 1,5 45 25 69 37 S 996,2 38 0,0
14.01.2020 11:00:00 4,6 0,7 42 23 69 38 S 997,7 50 0,0
14.01.2020 10:00:00 3,7 0,6 41 22 63 34 S 999,3 49 0,0
14.01.2020 09:00:00 2,4 0,1 35 19 56 30 S 1000,4 49 0,0
14.01.2020 08:00:00 1,6 -0,2 28 15 42 23 S 1002,0 50 0,0

tt = Température de l'air
td = dewpoint
ff = Vitesse du vent
fx = gusts
dd = Direction du vent
ppp = reduced air pressure
vv = visibility
rr = Quantités de précipitations

stations d'obs. à proximité